[[{"header":{"parameterUnit":"m.s-1","parameterCategory":1,"la1":30.2991,"la2":30.254,"lo1":-89.0895,"lo2":-89.0444,"dy":0.0017,"dx":0.0017,"nx":28,"ny":28,"refTime":"2024-10-10T03:00:00:Z","depth":0,"parameterNumber":2,"parameterNumberName":"U-component_of_WINDS"},"data":[0,0,0,0,0,0,0,0,0,0,0,0,0,0,0,0,0,0,0,0,0,0,0,0,0,0,0,0,0,0,0,0,0,0,0,0,0,0,0,0,0,0,0,0,0,0,0,0,0,0,0,0,0,0,0,0,0,0,-4.0217,-4.0218,0,-4.0317,-4.0318,-4.0319,-4.0268,-4.0265,-4.0262,-4.026,-4.0363,-4.0368,-4.0373,0,0,0,0,0,0,0,0,0,0,0,0,0,-3.9984,-3.9988,-4.0217,-4.0218,-4.022,-4.0317,-4.0318,-4.0319,-4.0268,-4.0265,-4.0261,-4.0258,-4.0362,-4.0368,-4.0374,0,0,0,0,0,0,0,0,0,0,0,0,0,-4.0085,-3.999,-4.0217,-4.0206,-4.0205,-4.0316,-4.0318,-4.032,-4.0269,-4.0265,-4.0261,-4.0257,-4.0359,-4.0367,-4.0375,-4.0503,0,0,-4.0399,-4.0402,0,0,0,0,0,0,0,0,-4.0079,-4.0093,-4.0206,-4.0207,-4.0207,-4.0276,-4.0274,-4.0381,-4.027,-4.0245,-4.026,-4.0255,-4.0337,-4.0347,-4.0374,-4.0508,-4.0512,-4.04,-4.0404,-4.0408,-4.041,0,0,0,0,0,0,0,-4.0072,-4.0089,-4.0257,-4.0208,-4.0208,-4.0196,-4.0206,-4.0294,-4.0312,-4.0247,-4.0243,-4.0256,-4.0337,-4.0367,-4.0376,-4.0514,-4.0399,-4.0406,-4.0411,-4.0414,-4.076,-4.0764,0,0,0,0,0,0,-4.0065,-4.0083,-4.0253,-4.026,-4.0132,-4.0204,-4.0215,-4.0258,-4.0311,-4.0315,-4.0259,-4.0253,-4.0355,-4.0367,-4.038,-4.0535,-4.0408,-4.0415,-4.0419,-4.0756,-4.0761,-4.0766,0,0,0,0,0,0,-4.0061,-4.0081,-4.0249,-4.0171,-4.0191,-4.0212,-4.026,-4.0262,-4.0292,-4.032,-4.0323,-4.0286,-4.0353,-4.0369,-4.0473,-4.0538,-4.0418,-4.0426,-4.075,-4.0757,-4.0764,-4.0846,0,0,0,0,0,0,-4.0054,-4.008,-4.0128,-4.0172,-4.0195,-4.0341,-4.0264,-4.0266,-4.0305,-4.0298,-4.0347,-4.0351,-4.0351,-4.0462,-4.0481,-4.0547,-4.0432,-4.0745,-4.0753,-4.0761,-4.0838,-4.0855,-4.0869,0,0,0,0,0,-4.0046,-4.0147,-4.0131,-4.0152,-4.0256,-4.0344,-4.0358,-4.0355,-4.031,-4.036,-4.0379,-4.0349,-4.0528,-4.0473,-4.0494,-4.0563,-4.0741,-4.0751,-4.0761,-4.0831,-4.0851,-4.0869,0,0,0,0,0,0,-4.011,-4.0152,-4.0135,-4.0253,-4.0296,-4.0335,-4.0397,-4.0377,-4.0434,-4.0425,-4.0419,-4.0431,-4.054,-4.0562,-4.05,-4.0691,-4.0627,-4.0642,-4.0673,-4.0693,-4.0709,-4.0702,-4.0438,0,0,0,0,0,-4.0138,-4.0206,-4.0239,-4.034,-4.0362,-4.0377,-4.0415,-4.0409,-4.0453,-4.0471,-4.0497,-4.0542,-4.0608,-4.0651,-4.0714,-4.084,-4.0851,-4.0898,-4.0914,-4.0927,-4.094,-4.1011,-4.1033,-4.0799,-4.0799,-4.0799,0,0,-4.0196,-4.0228,-4.0271,-4.0354,-4.0386,-4.0457,-4.0392,-4.0469,-4.0523,-4.0483,-4.0584,-4.0605,-4.0654,-4.0771,-4.0823,-4.0792,-4.1007,-4.094,-4.095,-4.0956,-4.1024,-4.1046,-4.1066,-4.0806,-4.0805,-4.0804,0,0,-4.0339,-4.0369,-4.0458,-4.0492,-4.0541,-4.055,-4.0572,-4.0615,-4.0628,-4.0729,-4.0701,-4.0764,-4.0878,-4.0915,-4.0948,-4.1107,-4.1083,-4.1128,-4.1211,-4.128,-4.1299,-4.1315,-4.1374,-4.1395,-4.114,-4.1141,-4.1141,0,-4.0405,-4.0511,-4.0506,-4.0586,-4.0624,-4.0592,-4.0682,-4.0715,-4.0783,-4.0811,-4.0775,-4.0918,-4.0948,-4.1074,-4.1113,-4.1141,-4.1167,-4.1122,-4.1296,-4.1313,-4.1328,-4.1384,-4.1406,-4.1146,-4.1145,-4.1145,-4.1144,0,-4.0591,-4.0665,-4.0731,-4.0798,-4.0843,-4.0928,-4.0936,-4.0983,-4.0974,-4.0987,-4.1092,-4.1127,-4.1197,-4.1226,-4.1218,-4.1352,-4.1332,-4.1296,-4.1232,-4.1356,-4.1408,-4.1429,-4.1153,-4.1151,-4.115,-4.1149,0,0,-4.0777,-4.0841,-4.0865,-4.0896,-4.0949,-4.1007,-4.1091,-4.1159,-4.1201,-4.1249,-4.132,-4.1418,-4.1386,-4.1424,-4.142,-4.148,-4.1606,-4.1438,-4.1439,-4.1469,-4.1759,-4.1787,-4.1811,-4.159,-4.1594,-4.1598,-4.1756,0,-4.0925,-4.1072,-4.1071,-4.1208,-4.1277,-4.1247,-4.1321,-4.1362,-4.1377,-4.1439,-4.1455,-4.1525,-4.1477,-4.15,-4.1558,-4.1579,-4.1665,-4.1567,-4.1659,-4.1662,-4.1649,-4.1838,-4.1867,-4.2015,-4.1776,-4.1779,-4.1782,0,-4.1117,-4.1173,-4.1317,-4.1362,-4.1391,-4.1457,-4.152,-4.1579,-4.1626,-4.1633,-4.1676,-4.1663,-4.175,-4.1683,-4.1804,-4.1737,-4.1775,-4.1791,-4.1796,-4.1806,-4.173,-4.1855,-4.2061,-4.2084,-4.1814,-4.1811,-4.1809,0,-4.1241,-4.1351,-4.1452,-4.1479,-4.1534,-4.1581,-4.1606,-4.1649,-4.1691,-4.1747,-4.1774,-4.1839,-4.1875,-4.1927,-4.1932,-4.1882,-4.2055,-4.1987,-4.2064,-4.2064,-4.2103,-4.2101,-4.232,-4.2124,-4.2124,-4.2124,-4.2123,0,-4.1408,-4.1497,-4.1509,-4.1571,-4.1671,-4.1669,-4.1768,-4.1789,-4.1828,-4.1894,-4.1872,-4.1936,-4.1938,-4.2003,-4.2008,-4.2108,-4.2124,-4.2133,-4.2134,-4.2137,-4.2136,-4.2162,-4.2153,-4.213,-4.2128,-4.2127,-4.2126,0,-4.1563,-4.1574,-4.1683,-4.1726,-4.1739,-4.1811,-4.1848,-4.1908,-4.1921,-4.2006,-4.2026,-4.2046,-4.2122,-4.2132,-4.222,-4.2223,-4.2346,-4.2334,-4.233,-4.2329,-4.2406,-4.2399,-4.2651,-4.2685,-4.2466,-4.2468,-4.247,0,-4.1669,-4.1738,-4.1789,-4.1832,-4.186,-4.1929,-4.1972,-4.1972,-4.2018,-4.2078,-4.2131,-4.2204,-4.2263,-4.2386,-4.241,-4.2478,-4.2469,-4.2553,-4.2479,-4.248,-4.2473,-4.2469,-4.2477,-4.2567,-4.257,-4.2572,-4.2573,0,-4.1858,-4.186,-4.1922,-4.1988,-4.204,-4.2091,-4.2139,-4.2176,-4.2183,-4.2236,-4.2313,-4.2359,-4.2449,-4.2523,-4.2591,-4.2617,-4.2598,-4.2596,-4.2618,-4.2622,-4.2617,-4.2623,-4.2371,-4.2591,-4.2589,-4.2588,-4.2587,-4.2586,-4.1993,-4.2053,-4.2099,-4.217,-4.2206,-4.2253,-4.2312,-4.2332,-4.2397,-4.247,-4.2467,-4.2553,-4.2599,-4.2688,-4.272,-4.2788,-4.276,-4.2791,-4.2799,-4.2808,-4.2816,-4.2605,-4.28,-4.2799,-4.2799,-4.2798,-4.2798,0,-4.2182,-4.221,-4.2275,-4.2344,-4.24,-4.2376,-4.2428,-4.2477,-4.2553,-4.2598,-4.2657,-4.2747,-4.2819,-4.2848,-4.2919,-4.2968,-4.2961,-4.2987,-4.2984,-4.2991,-4.2836,-4.2811,-4.2992,-4.2992,-4.2992,-4.2992,-4.2992,-4.2992,-4.2287,-4.2388,-4.2396,-4.2516,-4.2544,-4.2627,-4.266,-4.2703,-4.2739,-4.284,-4.29,-4.2919,-4.2959,-4.3033,-4.3098,-4.3105,-4.3133,-4.3164,-4.3167,-4.3021,-4.3002,-4.2983,-4.296,-4.3169,-4.317,-4.3317,-4.3319,-4.332]},{"header":{"parameterUnit":"m.s-1","parameterCategory":1,"la1":30.2991,"la2":30.254,"lo1":-89.0895,"lo2":-89.0444,"dy":0.0017,"dx":0.0017,"nx":28,"ny":28,"refTime":"2024-10-10T03:00:00:Z","depth":0,"parameterNumber":3,"parameterNumberName":"V-component_of_WINDS"},"data":[0,0,0,0,0,0,0,0,0,0,0,0,0,0,0,0,0,0,0,0,0,0,0,0,0,0,0,0,0,0,0,0,0,0,0,0,0,0,0,0,0,0,0,0,0,0,0,0,0,0,0,0,0,0,0,0,0,0,-2.0983,-2.0983,0,-2.0964,-2.0964,-2.0964,-2.0911,-2.0909,-2.0908,-2.0907,-2.0889,-2.089,-2.089,0,0,0,0,0,0,0,0,0,0,0,0,0,-2.0973,-2.0973,-2.0983,-2.0983,-2.0982,-2.0964,-2.0964,-2.0964,-2.0911,-2.0909,-2.0908,-2.0907,-2.0889,-2.089,-2.089,0,0,0,0,0,0,0,0,0,0,0,0,0,-2.0968,-2.0973,-2.0983,-2.0954,-2.0951,-2.0964,-2.0964,-2.0964,-2.0911,-2.0909,-2.0908,-2.0906,-2.0889,-2.089,-2.0891,-2.0931,0,0,-2.0893,-2.0894,0,0,0,0,0,0,0,0,-2.0968,-2.0968,-2.0958,-2.0956,-2.0953,-2.0938,-2.0954,-2.0953,-2.0912,-2.0926,-2.0907,-2.0905,-2.0907,-2.0906,-2.0907,-2.093,-2.093,-2.0893,-2.0894,-2.0894,-2.0895,0,0,0,0,0,0,0,-2.0969,-2.0969,-2.0975,-2.0958,-2.0955,-2.0942,-2.0939,-2.0953,-2.0927,-2.0925,-2.0921,-2.0919,-2.0905,-2.0906,-2.0906,-2.0929,-2.0893,-2.0894,-2.0895,-2.0895,-2.0985,-2.0987,0,0,0,0,0,0,-2.0973,-2.097,-2.0976,-2.0975,-2.0956,-2.0943,-2.094,-2.0944,-2.0926,-2.0922,-2.0921,-2.0917,-2.0905,-2.0905,-2.0905,-2.0951,-2.0894,-2.0895,-2.0896,-2.0983,-2.0985,-2.0987,0,0,0,0,0,0,-2.0973,-2.0974,-2.0977,-2.0971,-2.097,-2.0945,-2.095,-2.0945,-2.0946,-2.0923,-2.0918,-2.0927,-2.0904,-2.0904,-2.0925,-2.095,-2.0896,-2.0897,-2.0981,-2.0984,-2.0986,-2.1044,0,0,0,0,0,0,-2.0973,-2.0975,-2.099,-2.0972,-2.0971,-2.0997,-2.0952,-2.0946,-2.0947,-2.0942,-2.0927,-2.0923,-2.0902,-2.0924,-2.0926,-2.095,-2.0897,-2.0979,-2.0982,-2.0985,-2.104,-2.1048,-2.1056,0,0,0,0,0,-2.0973,-2.1007,-2.0991,-2.0992,-2.0989,-2.0999,-2.0998,-2.0973,-2.095,-2.0965,-2.095,-2.0924,-2.0947,-2.0926,-2.0928,-2.0953,-2.0977,-2.0981,-2.0985,-2.1036,-2.1047,-2.1056,0,0,0,0,0,0,-2.1029,-2.1004,-2.0986,-2.1015,-2.1009,-2.099,-2.1008,-2.0985,-2.0986,-2.0981,-2.095,-2.0947,-2.0973,-2.0965,-2.0943,-2.0991,-2.0957,-2.0962,-2.0996,-2.1005,-2.1013,-2.1015,-2.0898,0,0,0,0,0,-2.1045,-2.1054,-2.1032,-2.106,-2.1058,-2.1034,-2.1037,-2.1018,-2.1011,-2.1008,-2.0995,-2.0989,-2.0995,-2.1,-2.1004,-2.1038,-2.1034,-2.1056,-2.1064,-2.1071,-2.1075,-2.1093,-2.1102,-2.1001,-2.1001,-2.1001,0,0,-2.1078,-2.1065,-2.1073,-2.1071,-2.1064,-2.1075,-2.1032,-2.1045,-2.1053,-2.101,-2.1029,-2.102,-2.1011,-2.1039,-2.1051,-2.1033,-2.1102,-2.1076,-2.1082,-2.1082,-2.1098,-2.1108,-2.1116,-2.1004,-2.1003,-2.1003,0,0,-2.1143,-2.1134,-2.1156,-2.115,-2.114,-2.1124,-2.1129,-2.1113,-2.1104,-2.1123,-2.1091,-2.11,-2.1111,-2.1106,-2.1105,-2.1167,-2.1143,-2.1169,-2.1211,-2.1229,-2.1237,-2.1244,-2.1266,-2.1275,-2.1174,-2.1174,-2.1174,0,-2.1185,-2.1199,-2.1171,-2.1186,-2.1186,-2.1147,-2.1169,-2.1165,-2.1157,-2.1158,-2.1139,-2.1151,-2.1142,-2.1169,-2.1184,-2.1184,-2.119,-2.1171,-2.1238,-2.1244,-2.1251,-2.1272,-2.128,-2.1177,-2.1177,-2.1177,-2.1176,0,-2.1251,-2.1262,-2.1281,-2.1274,-2.1276,-2.1295,-2.1269,-2.1275,-2.1255,-2.1241,-2.126,-2.1249,-2.125,-2.1254,-2.1236,-2.1278,-2.1267,-2.1243,-2.1209,-2.1264,-2.1283,-2.1291,-2.1182,-2.1181,-2.118,-2.1179,0,0,-2.1352,-2.1328,-2.1336,-2.1332,-2.1318,-2.1326,-2.1342,-2.1343,-2.1348,-2.1344,-2.1357,-2.1367,-2.1344,-2.1343,-2.1324,-2.1339,-2.1389,-2.1313,-2.1312,-2.1328,-2.1435,-2.1453,-2.1463,-2.1373,-2.1374,-2.1375,-2.1435,0,-2.1414,-2.1441,-2.1416,-2.1448,-2.1457,-2.142,-2.1434,-2.1427,-2.1414,-2.142,-2.1406,-2.1413,-2.1382,-2.1382,-2.1395,-2.138,-2.141,-2.1375,-2.1385,-2.1386,-2.1389,-2.1473,-2.1493,-2.155,-2.1443,-2.1444,-2.1445,0,-2.149,-2.1488,-2.1521,-2.1504,-2.1507,-2.1521,-2.1519,-2.1525,-2.1516,-2.1505,-2.1504,-2.148,-2.1495,-2.1461,-2.1482,-2.1459,-2.1461,-2.1455,-2.1456,-2.1457,-2.1419,-2.1476,-2.1568,-2.1577,-2.1457,-2.1456,-2.1455,0,-2.156,-2.1566,-2.1587,-2.1585,-2.1565,-2.1576,-2.1568,-2.1558,-2.1559,-2.1558,-2.1559,-2.1559,-2.156,-2.1561,-2.1537,-2.1515,-2.1561,-2.1525,-2.1553,-2.1554,-2.1565,-2.1565,-2.1659,-2.1566,-2.1566,-2.1566,-2.1566,0,-2.1632,-2.1654,-2.1618,-2.1631,-2.1654,-2.1624,-2.1648,-2.1637,-2.1628,-2.1638,-2.1606,-2.1616,-2.1584,-2.1591,-2.1573,-2.1593,-2.1593,-2.1585,-2.158,-2.1588,-2.159,-2.159,-2.1586,-2.1568,-2.1567,-2.1567,-2.1567,0,-2.1715,-2.1692,-2.1712,-2.1692,-2.1687,-2.1705,-2.1688,-2.1699,-2.1683,-2.1696,-2.1697,-2.1673,-2.1679,-2.1656,-2.1659,-2.1646,-2.1676,-2.1664,-2.1679,-2.1676,-2.1705,-2.1703,-2.1803,-2.1815,-2.1714,-2.1715,-2.1716,0,-2.1763,-2.1778,-2.176,-2.1764,-2.1758,-2.1765,-2.1766,-2.1737,-2.174,-2.1731,-2.1743,-2.1747,-2.1748,-2.176,-2.1743,-2.1744,-2.1732,-2.1768,-2.1733,-2.174,-2.1733,-2.1733,-2.1734,-2.1775,-2.1776,-2.1777,-2.1778,0,-2.1849,-2.1837,-2.184,-2.1839,-2.1841,-2.1839,-2.1835,-2.184,-2.181,-2.1814,-2.182,-2.1821,-2.1823,-2.1827,-2.1825,-2.1818,-2.1793,-2.1789,-2.1796,-2.1805,-2.1813,-2.1809,-2.1699,-2.1787,-2.1786,-2.1786,-2.1785,-2.1785,-2.1916,-2.1928,-2.1917,-2.1921,-2.1915,-2.1911,-2.1921,-2.1906,-2.191,-2.1909,-2.1892,-2.1901,-2.1891,-2.1886,-2.1881,-2.1888,-2.1872,-2.1881,-2.1884,-2.1887,-2.1892,-2.1811,-2.1887,-2.1887,-2.1887,-2.1887,-2.1886,0,-2.2002,-2.1992,-2.1996,-2.1991,-2.1995,-2.197,-2.1964,-2.1969,-2.1977,-2.197,-2.1972,-2.1978,-2.1982,-2.1964,-2.1966,-2.1974,-2.1963,-2.1976,-2.1975,-2.1974,-2.1906,-2.19,-2.1985,-2.1985,-2.1985,-2.1985,-2.1985,-2.1985,-2.2047,-2.2066,-2.2052,-2.2067,-2.2058,-2.2066,-2.2065,-2.2062,-2.2056,-2.2064,-2.2067,-2.2055,-2.2044,-2.2044,-2.2046,-2.2041,-2.2043,-2.206,-2.2051,-2.1988,-2.1979,-2.197,-2.1964,-2.206,-2.2061,-2.2118,-2.2119,-2.2119]}]]